[TLELIST] Archives

 

Current TLEs <02 NOVEMBER 2004>

November 2nd 2004 PST

HST 1 20580U 90037B 04307.17585631 .00001685 00000-0 12134-3 0 1978 2 20580 28.4696 307.6099 0003201 18.3419 341.7285 14.99393108596139 ISS 1 25544U 98067A 04307.51075260 .00037779 00000-0 30851-3 0 512 2 25544 51.6368 339.9531 0008388 307.4833 204.9552 15.70155960340046 CHANDRA 1 25867U 99040B 04306.41666667 .00000000 00000-0 00000+0 0 7172 2 25867 55.0275 107.8280 5723543 303.8045 354.8671 0.37797982 1212 These 2-Line Elements (TLEs) are from US Space Command courtesy TS Kelso's Celestial BB ...Continue Reading

Current TLEs <02 NOVEMBER 2004>

November 2nd 2004 PST

HST 1 20580U 90037B 04307.17585631 .00001685 00000-0 12134-3 0 1978 2 20580 28.4696 307.6099 0003201 18.3419 341.7285 14.99393108596139 ISS (ZARYA) 1 25544U 98067A 04307.51075260 .00037779 00000-0 30851-3 0 512 2 25544 51.6368 339.9531 0008388 307.4833 204.9552 15.70155960340046 CXO 1 25867U 99040B 04306.41666667 .00000000 00000-0 00000+0 0 7172 2 25867 55.0275 107.8280 5723543 303.8045 354.8671 0.37797982 1212 These 2-Line Elements (TLEs) are from US Space Command courtesy TS Kelso's Celestia ...Continue Reading

Current TLEs <22 OCTOBER 2004>

October 23rd 2004 PST

HST 1 20580U 90037B 04296.45910607 .00000912 00000-0 59688-4 0 1902 2 20580 28.4694 17.3953 0004117 265.2946 94.7172 14.99359833594524 ISS 1 25544U 98067A 04297.96542328 .00022933 00000-0 19506-3 0 9804 2 25544 51.6373 28.6676 0008519 266.5357 265.8198 15.69455665338543 CHANDRA 1 25867U 99040B 04295.87500000 +.00000000 +00000-0 +00000-0 0 07134 2 25867 054.8749 108.1611 5718796 303.7396 359.9234 00.37787708001215 These 2-Line Elements (TLEs) are from US Space Command courtesy TS Kelso's Celestial BB ...Continue Reading

Current TLEs <18 OCTOBER 2004>

October 18th 2004 PST

HST 1 20580U 90037B 04291.66646484 .00001082 00000-0 73245-4 0 1879 2 20580 28.4676 48.6020 0003484 222.4105 137.6213 14.99353709593803 ISS 1 25544U 98067A 04292.92858796 .00022128 00000-0 19002-3 0 9441 2 25544 51.6359 54.3536 0008908 244.6286 252.4379 15.69243283337754 CHANDRA 1 25867U 99040B 04293.20833333 +.00000000 +00000-0 +00000-0 0 07126 2 25867 054.8571 108.1783 5719491 303.8542 356.8121 00.37791749001216 These 2-Line Elements (TLEs) are from US Space Command courtesy TS Kelso's Celestial BB ...Continue Reading

Current TLEs <15 OCTOBER 2004>

October 16th 2004 PST

HST 1 20580U 90037B 04290.53486619 .00001083 00000-0 73324-4 0 1864 2 20580 28.4675 55.9687 0003474 210.4351 149.6035 14.99351620593637 ISS 1 25544U 98067A 04290.55492228 .00019590 00000-0 16963-3 0 9286 2 25544 51.6353 66.4556 0009063 234.1942 164.8166 15.69128199337387 CHANDRA 1 25867U 99040B 04285.25000000 +.00000000 +00000-0 +00000-0 0 07107 2 25867 054.7384 108.4324 5719339 303.9232 353.2128 00.37795312001217 These 2-Line Elements (TLEs) are from US Space Command courtesy TS Kelso's Celestial BB ...Continue Reading

Current TLEs <13 OCTOBER 2004>

October 13th 2004 PST

HST 1 20580U 90037B 04287.73914542 .00001020 00000-0 68335-4 0 1770 2 20580 28.4662 74.1739 0003785 181.0693 178.9890 14.99346370593215 ISS 1 25544U 98067A 04287.89727991 .00017018 00000-0 14873-3 0 9053 2 25544 51.6353 80.0046 0009193 222.1119 274.6720 15.69017183336969 CHANDRA 1 25867U 99040B 04285.25000000 +.00000000 +00000-0 +00000-0 0 07107 2 25867 054.7384 108.4324 5719339 303.9232 353.2128 00.37795312001217 These 2-Line Elements (TLEs) are from US Space Command courtesy TS Kelso's Celestial BB ...Continue Reading
  • This mailing list is a public mailing list - anyone may join or leave, at any time.
  • This mailing list is announce-only.

International Space Station (ISS) / Hubble Space Telescope (HST) / Chandra X-Ray Observatory Orbital Data via EMAIL

Privacy Policy:

Private list